�������l�o���
Date,Time,MP-1(��Sv/h),MP-2(��Sv/h),MP-3(��Sv/h),MP-4(��Sv/h),MP-5(��Sv/h),MP-6(��Sv/h),MP-7(��Sv/h),MP-8(��Sv/h),����,����(m/s),���J
2023/01/18,00:00,0.563,0.807,0.513,1.030,0.717,0.317,0.580,0.547,��,1.2,��
2023/01/18,00:10,0.560,0.803,0.510,1.027,0.710,0.313,0.587,0.553,��쐼,2.3,��
2023/01/18,00:20,0.560,0.803,0.510,1.027,0.710,0.313,0.587,0.553,��쐼,2.4,��
2023/01/18,00:30,0.560,0.803,0.510,1.027,0.710,0.313,0.587,0.553,�쐼,2.8,��
2023/01/18,00:40,0.560,0.803,0.510,1.027,0.710,0.313,0.587,0.553,��쐼,2.7,��
2023/01/18,00:50,0.560,0.803,0.510,1.027,0.710,0.313,0.587,0.553,��쐼,3.0,��
2023/01/18,01:00,0.560,0.803,0.510,1.027,0.710,0.314,0.586,0.554,�쐼,2.8,��
2023/01/18,01:10,0.550,0.803,0.503,1.023,0.720,0.320,0.583,0.553,�쐼,3.1,��
2023/01/18,01:20,0.550,0.803,0.503,1.023,0.720,0.320,0.583,0.553,��쐼,3.5,��
2023/01/18,01:30,0.550,0.803,0.503,1.023,0.720,0.320,0.583,0.553,��쐼,4.1,�L
2023/01/18,01:40,0.550,0.803,0.503,1.023,0.720,0.320,0.583,0.553,��쐼,4.1,��
2023/01/18,01:50,0.550,0.803,0.503,1.023,0.720,0.320,0.583,0.553,��쐼,4.4,��
2023/01/18,02:00,0.551,0.803,0.503,1.023,0.720,0.320,0.583,0.553,��쐼,5.2,�L
2023/01/18,02:10,0.567,0.810,0.507,1.033,0.717,0.320,0.587,0.557,��쐼,5.8,�L
2023/01/18,02:20,0.567,0.810,0.507,1.033,0.717,0.320,0.587,0.557,��쐼,6.0,�L
2023/01/18,02:30,0.567,0.810,0.507,1.033,0.717,0.320,0.587,0.557,��쐼,5.3,�L
2023/01/18,02:40,0.567,0.810,0.507,1.033,0.717,0.320,0.587,0.557,��쐼,4.4,�L
2023/01/18,02:50,0.567,0.810,0.507,1.033,0.717,0.320,0.587,0.557,�쐼,3.5,�L
2023/01/18,03:00,0.566,0.810,0.507,1.033,0.716,0.320,0.586,0.557,���쐼,3.2,�L
2023/01/18,03:10,0.557,0.800,0.513,1.030,0.717,0.323,0.577,0.550,���쐼,3.4,�L
2023/01/18,03:20,0.557,0.800,0.513,1.030,0.717,0.323,0.577,0.550,���쐼,2.9,�L
2023/01/18,03:30,0.557,0.800,0.513,1.030,0.717,0.323,0.577,0.550,���쐼,3.0,�L
2023/01/18,03:40,0.557,0.800,0.513,1.030,0.717,0.323,0.577,0.550,�쐼,2.5,�L
2023/01/18,03:50,0.557,0.800,0.513,1.030,0.717,0.323,0.577,0.550,��쐼,3.9,�L
2023/01/18,04:00,0.557,0.800,0.513,1.029,0.716,0.323,0.577,0.550,�쐼,4.4,�L
2023/01/18,04:10,0.560,0.810,0.503,1.027,0.717,0.323,0.580,0.553,��쐼,4.7,�L
2023/01/18,04:20,0.560,0.810,0.503,1.027,0.717,0.323,0.580,0.553,��,3.3,�L
2023/01/18,04:30,0.560,0.810,0.503,1.027,0.717,0.323,0.580,0.553,��쐼,3.0,�L
2023/01/18,04:40,0.560,0.810,0.503,1.027,0.717,0.323,0.580,0.553,�쐼,2.6,�L
2023/01/18,04:50,0.560,0.810,0.503,1.027,0.717,0.323,0.580,0.553,��쐼,2.1,�L
2023/01/18,05:00,0.560,0.810,0.504,1.027,0.716,0.323,0.580,0.553,��쐼,2.3,�L
2023/01/18,05:10,0.560,0.783,0.503,1.023,0.703,0.327,0.573,0.550,��쐼,2.8,�L
2023/01/18,05:20,0.560,0.783,0.503,1.023,0.703,0.327,0.573,0.550,�쐼,2.2,��
2023/01/18,05:30,0.560,0.783,0.503,1.023,0.703,0.327,0.573,0.550,���쐼,3.3,��
2023/01/18,05:40,0.560,0.783,0.503,1.023,0.703,0.327,0.573,0.550,���쐼,4.4,��
2023/01/18,05:50,0.560,0.783,0.503,1.023,0.703,0.327,0.573,0.550,��,4.2,��
2023/01/18,06:00,0.560,0.784,0.503,1.023,0.703,0.326,0.574,0.550,���쐼,2.1,��
2023/01/18,06:10,0.557,0.800,0.503,1.033,0.703,0.323,0.577,0.557,���쐼,2.3,��
2023/01/18,06:20,0.557,0.800,0.503,1.033,0.703,0.323,0.577,0.557,���쐼,2.3,��
2023/01/18,06:30,0.557,0.800,0.503,1.033,0.703,0.323,0.577,0.557,��,2.7,��
2023/01/18,06:40,0.557,0.800,0.503,1.033,0.703,0.323,0.577,0.557,��,2.2,��
2023/01/18,06:50,0.557,0.800,0.503,1.033,0.703,0.323,0.577,0.557,��,3.8,��
2023/01/18,07:00,0.556,0.800,0.503,1.033,0.703,0.323,0.577,0.556,��,5.6,��
2023/01/18,07:10,0.550,0.790,0.493,1.033,0.700,0.313,0.573,0.553,���쐼,8.0,��
2023/01/18,07:20,0.550,0.790,0.493,1.033,0.700,0.313,0.573,0.553,��,5.8,��
2023/01/18,07:30,0.550,0.790,0.493,1.033,0.700,0.313,0.573,0.553,��,7.1,��
2023/01/18,07:40,0.550,0.790,0.493,1.033,0.700,0.313,0.573,0.553,��,10.2,��
2023/01/18,07:50,0.550,0.790,0.493,1.033,0.700,0.313,0.573,0.553,���k��,8.3,��
2023/01/18,08:00,0.550,0.790,0.494,1.033,0.700,0.313,0.574,0.553,��,9.4,��
2023/01/18,08:10,0.550,0.790,0.500,1.017,0.707,0.313,0.583,0.543,��,8.8,��
2023/01/18,08:20,0.550,0.790,0.500,1.017,0.707,0.313,0.583,0.543,��,9.1,��
2023/01/18,08:30,0.550,0.790,0.500,1.017,0.707,0.313,0.583,0.543,���k��,10.1,��
2023/01/18,08:40,0.550,0.790,0.500,1.017,0.707,0.313,0.583,0.543,��,10.4,��
2023/01/18,08:50,0.550,0.790,0.500,1.017,0.707,0.313,0.583,0.543,��,12.3,��
2023/01/18,09:00,0.550,0.790,0.500,1.016,0.707,0.314,0.583,0.544,��,10.5,��
2023/01/18,09:10,0.557,0.800,0.503,1.027,0.697,0.317,0.583,0.550,��,10.4,��
2023/01/18,09:20,0.557,0.800,0.503,1.027,0.697,0.317,0.583,0.550,��,10.7,��
2023/01/18,09:30,0.557,0.800,0.503,1.027,0.697,0.317,0.583,0.550,���k��,13.2,��
2023/01/18,09:40,0.557,0.800,0.503,1.027,0.697,0.317,0.583,0.550,��,9.3,��
2023/01/18,09:50,0.557,0.800,0.503,1.027,0.697,0.317,0.583,0.550,��,9.1,��
2023/01/18,10:00,0.557,0.800,0.504,1.026,0.699,0.318,0.582,0.550,��,8.6,��
2023/01/18,10:10,0.558,0.798,0.503,1.028,0.707,0.319,0.577,0.551,���k��,8.2,��
2023/01/18,10:20,0.559,0.799,0.505,1.027,0.707,0.320,0.579,0.552,���k��,7.5,��
2023/01/18,10:30,0.558,0.797,0.504,1.031,0.708,0.319,0.577,0.551,���k��,6.6,��
2023/01/18,10:40,0.561,0.799,0.504,1.029,0.709,0.319,0.576,0.551,�k��,6.0,��
2023/01/18,10:50,0.558,0.798,0.505,1.030,0.709,0.319,0.578,0.552,�k�k��,5.5,��
2023/01/18,11:00,0.557,0.800,0.505,1.028,0.710,0.320,0.579,0.552,�k��,5.2,��
2023/01/18,11:10,0.559,0.797,0.507,1.029,0.709,0.320,0.577,0.551,�k��,6.4,��
2023/01/18,11:20,0.560,0.796,0.506,1.028,0.711,0.320,0.577,0.551,���k��,4.5,��
2023/01/18,11:30,0.558,0.799,0.507,1.029,0.709,0.320,0.577,0.553,���k��,5.3,��
2023/01/18,11:40,0.560,0.797,0.505,1.030,0.708,0.321,0.579,0.552,�k��,5.5,��
2023/01/18,11:50,0.559,0.800,0.506,1.030,0.710,0.320,0.576,0.553,���k��,6.0,��
2023/01/18,12:00,0.559,0.799,0.504,1.028,0.709,0.319,0.579,0.553,��,9.9,��
2023/01/18,12:10,0.559,0.800,0.507,1.031,0.710,0.320,0.579,0.553,��,12.3,��
2023/01/18,12:20,0.558,0.801,0.507,1.030,0.709,0.319,0.578,0.553,���k��,12.5,��
2023/01/18,12:30,0.558,0.799,0.506,1.029,0.709,0.320,0.579,0.554,��,10.5,��
2023/01/18,12:40,0.560,0.800,0.505,1.031,0.709,0.321,0.579,0.553,���k��,10.2,��
2023/01/18,12:50,0.559,0.800,0.508,1.031,0.707,0.321,0.579,0.553,���k��,8.6,��
2023/01/18,13:00,0.558,0.799,0.507,1.032,0.707,0.321,0.578,0.551,���k��,8.0,��
2023/01/18,13:10,0.553,0.800,0.507,1.030,0.709,0.320,0.577,0.552,���k��,7.1,��
2023/01/18,13:20,0.554,0.799,0.506,1.030,0.708,0.320,0.580,0.552,���k��,6.9,��
2023/01/18,13:30,0.552,0.799,0.506,1.032,0.711,0.321,0.580,0.553,���k��,6.0,��
2023/01/18,13:40,0.555,0.799,0.507,1.031,0.711,0.320,0.577,0.553,�k��,5.0,��
2023/01/18,13:50,0.555,0.799,0.510,1.030,0.712,0.320,0.578,0.553,�k��,5.5,��
2023/01/18,14:00,0.558,0.800,0.507,1.030,0.711,0.321,0.578,0.553,�k��,6.0,��
2023/01/18,14:10,0.559,0.799,0.508,1.032,0.712,0.321,0.578,0.552,�k�k��,5.5,��
2023/01/18,14:20,0.560,0.801,0.508,1.031,0.712,0.321,0.577,0.554,�k�k��,4.9,��
2023/01/18,14:30,0.560,0.801,0.508,1.031,0.714,0.321,0.579,0.556,�k,4.2,��
2023/01/18,14:40,0.561,0.802,0.507,1.032,0.712,0.321,0.578,0.554,�k,3.0,��
2023/01/18,14:50,0.561,0.803,0.508,1.032,0.713,0.320,0.579,0.554,�k�k��,3.8,��
2023/01/18,15:00,0.562,0.802,0.508,1.031,0.715,0.321,0.579,0.553,�k�k��,6.0,��
2023/01/18,15:10,0.559,0.803,0.509,1.033,0.712,0.320,0.579,0.554,�k,6.3,��
2023/01/18,15:20,0.560,0.805,0.510,1.032,0.710,0.321,0.580,0.555,�k�k��,6.9,��
2023/01/18,15:30,0.561,0.803,0.509,1.032,0.713,0.320,0.579,0.553,�k�k��,7.4,��
2023/01/18,15:40,0.560,0.805,0.508,1.031,0.713,0.320,0.580,0.554,�k�k��,9.7,��
2023/01/18,15:50,0.560,0.805,0.508,1.033,0.712,0.319,0.579,0.554,�k�k��,9.3,��
2023/01/18,16:00,0.560,0.802,0.508,1.033,0.713,0.320,0.578,0.552,�k�k��,6.3,��
2023/01/18,16:10,0.560,0.804,0.507,1.032,0.713,0.320,0.579,0.554,�k,8.8,��
2023/01/18,16:20,0.559,0.805,0.509,1.033,0.713,0.320,0.578,0.553,�k,6.3,��
2023/01/18,16:30,0.561,0.802,0.507,1.030,0.715,0.319,0.580,0.552,�k�k��,6.6,��
2023/01/18,16:40,0.560,0.801,0.507,1.032,0.716,0.319,0.580,0.553,�k,7.1,��
2023/01/18,16:50,0.560,0.804,0.507,1.032,0.713,0.320,0.579,0.552,�k�k��,6.9,��
2023/01/18,17:00,0.558,0.801,0.506,1.033,0.713,0.321,0.578,0.552,�k�k��,8.5,��
2023/01/18,17:10,0.559,0.802,0.507,1.032,0.714,0.321,0.580,0.552,�k�k��,8.0,��
2023/01/18,17:20,0.558,0.804,0.507,1.030,0.713,0.320,0.579,0.553,�k�k��,8.5,��
2023/01/18,17:30,0.560,0.802,0.507,1.031,0.713,0.319,0.578,0.551,�k�k��,9.1,��
2023/01/18,17:40,0.559,0.802,0.507,1.032,0.714,0.320,0.579,0.550,�k�k��,7.5,��
2023/01/18,17:50,0.560,0.804,0.507,1.032,0.713,0.320,0.577,0.551,�k�k��,8.3,��
2023/01/18,18:00,0.559,0.803,0.507,1.033,0.714,0.318,0.579,0.553,�k�k��,8.0,��
2023/01/18,18:10,0.557,0.804,0.507,1.032,0.713,0.319,0.578,0.552,�k�k��,8.3,��
2023/01/18,18:20,0.559,0.805,0.507,1.035,0.713,0.319,0.578,0.551,�k�k��,7.7,��
2023/01/18,18:30,0.560,0.804,0.508,1.033,0.711,0.319,0.580,0.552,�k�k��,8.5,��
2023/01/18,18:40,0.558,0.805,0.505,1.031,0.714,0.320,0.579,0.550,�k,7.7,��
2023/01/18,18:50,0.559,0.807,0.508,1.031,0.711,0.320,0.579,0.551,�k�k��,8.6,��
2023/01/18,19:00,0.559,0.804,0.506,1.036,0.713,0.319,0.580,0.554,�k�k��,8.8,��
2023/01/18,19:10,0.558,0.804,0.506,1.033,0.714,0.319,0.580,0.551,�k�k��,8.5,��
2023/01/18,19:20,0.559,0.804,0.507,1.032,0.713,0.317,0.579,0.551,�k�k��,9.4,��
2023/01/18,19:30,0.558,0.804,0.507,1.033,0.713,0.318,0.579,0.551,�k�k��,6.9,��
2023/01/18,19:40,0.559,0.805,0.507,1.033,0.713,0.320,0.578,0.551,�k�k��,7.4,��
2023/01/18,19:50,0.559,0.806,0.507,1.035,0.712,0.319,0.579,0.551,�k�k��,8.6,��
2023/01/18,20:00,0.558,0.804,0.507,1.031,0.714,0.320,0.579,0.549,�k�k��,7.2,��
2023/01/18,20:10,0.557,0.805,0.509,1.033,0.713,0.319,0.579,0.549,�k�k��,7.4,��
2023/01/18,20:20,0.558,0.805,0.507,1.033,0.713,0.320,0.580,0.552,�k�k��,6.9,��
2023/01/18,20:30,0.558,0.804,0.506,1.032,0.714,0.319,0.578,0.552,�k,5.8,��
2023/01/18,20:40,0.558,0.806,0.506,1.034,0.714,0.319,0.580,0.550,�k,6.3,��
2023/01/18,20:50,0.558,0.806,0.507,1.032,0.712,0.319,0.579,0.551,�k�k��,5.8,��
2023/01/18,21:00,0.560,0.806,0.507,1.034,0.714,0.320,0.578,0.550,�k,6.0,��
2023/01/18,21:10,0.558,0.805,0.505,1.031,0.714,0.318,0.579,0.551,�k�k��,6.4,��
2023/01/18,21:20,0.557,0.806,0.506,1.034,0.714,0.318,0.578,0.551,�k�k��,6.0,��
2023/01/18,21:30,0.558,0.803,0.506,1.034,0.713,0.318,0.579,0.550,�k�k��,6.9,��
2023/01/18,21:40,0.558,0.805,0.506,1.032,0.714,0.319,0.580,0.551,�k�k��,7.2,��
2023/01/18,21:50,0.558,0.805,0.506,1.032,0.714,0.319,0.579,0.550,�k�k��,7.1,��
2023/01/18,22:00,0.557,0.802,0.507,1.033,0.714,0.320,0.579,0.551,�k�k��,7.4,��
2023/01/18,22:10,0.557,0.805,0.506,1.031,0.713,0.320,0.578,0.550,�k�k��,7.2,��
2023/01/18,22:20,0.557,0.805,0.506,1.035,0.713,0.319,0.578,0.551,�k�k��,6.3,��
2023/01/18,22:30,0.558,0.805,0.508,1.033,0.713,0.319,0.579,0.551,�k,5.6,��
2023/01/18,22:40,0.556,0.804,0.506,1.032,0.713,0.318,0.576,0.551,�k,7.8,��
2023/01/18,22:50,0.558,0.803,0.506,1.033,0.715,0.318,0.579,0.551,�k,7.7,��
2023/01/18,23:00,0.556,0.804,0.506,1.032,0.713,0.320,0.580,0.550,�k�k��,7.1,��
2023/01/18,23:10,0.557,0.806,0.507,1.032,0.714,0.320,0.577,0.551,�k�k��,7.7,��
2023/01/18,23:20,0.558,0.803,0.506,1.032,0.712,0.319,0.579,0.552,�k,7.4,��
2023/01/18,23:30,0.557,0.804,0.507,1.034,0.714,0.319,0.579,0.551,�k�k��,7.1,��
2023/01/18,23:40,0.558,0.806,0.506,1.034,0.712,0.319,0.579,0.550,�k�k��,8.5,��
2023/01/18,23:50,0.558,0.805,0.506,1.033,0.715,0.318,0.579,0.551,�k�k��,8.8,��
